[[{"header":{"parameterUnit":"m.s-1","parameterCategory":1,"la1":30.2991,"la2":30.254,"lo1":-89.0895,"lo2":-89.0444,"dy":0.0017,"dx":0.0017,"nx":28,"ny":28,"refTime":"2024-02-20T03:00:00:Z","depth":0,"parameterNumber":2,"parameterNumberName":"U-component_of_WINDS"},"data":[0,0,0,0,0,0,0,0,0,0,0,0,0,0,0,0,0,0,0,0,0,0,0,0,0,0,0,0,0,0,0,0,0,0,0,0,0,0,0,0,0,0,0,0,0,0,0,0,0,0,0,0,0,0,0,0,0,0,2.9645,2.9646,0,2.9735,2.9736,2.9737,2.9714,2.9712,2.971,2.9708,2.9798,2.9802,2.9806,0,0,0,0,0,0,0,0,0,0,0,0,0,2.945,2.9454,2.9645,2.9646,2.9647,2.9735,2.9736,2.9737,2.9714,2.9712,2.971,2.9708,2.9797,2.9802,2.9807,0,0,0,0,0,0,0,0,0,0,0,0,0,2.9537,2.9455,2.9645,2.9646,2.9647,2.9735,2.9736,2.9738,2.9714,2.9712,2.9709,2.9707,2.9796,2.9801,2.9807,2.9898,0,0,2.9826,2.9829,0,0,0,0,0,0,0,0,2.9532,2.9544,2.9645,2.9646,2.9648,2.971,2.97,2.9791,2.9715,2.9689,2.9708,2.9705,2.9771,2.9779,2.9802,2.9902,2.9906,2.9827,2.983,2.9833,2.9835,0,0,0,0,0,0,0,2.9526,2.954,2.9681,2.9646,2.9648,2.9641,2.9651,2.9717,2.9744,2.9691,2.9689,2.97,2.9771,2.9796,2.9804,2.9908,2.9826,2.9832,2.9835,2.9838,3.0083,3.0086,0,0,0,0,0,0,2.9519,2.9535,2.9678,2.9683,2.9582,2.9647,2.9657,2.9693,2.9743,2.9748,2.9703,2.9699,2.9787,2.9797,2.9807,2.9913,2.9833,2.9838,2.9842,3.008,3.0084,3.0087,0,0,0,0,0,0,2.9515,2.9532,2.9674,2.9609,2.9626,2.9653,2.9693,2.9696,2.972,2.9752,2.9756,2.9723,2.9785,2.9798,2.9875,2.9916,2.9841,2.9847,3.0077,3.0082,3.0086,3.0129,0,0,0,0,0,0,2.9509,2.9531,2.9566,2.961,2.963,2.9742,2.9696,2.97,2.9731,2.9727,2.9772,2.9777,2.9784,2.9866,2.9881,2.9923,2.9851,3.0073,3.0079,3.0084,3.0124,3.0134,3.0143,0,0,0,0,0,2.9503,2.9575,2.9568,2.9586,2.9675,2.9744,2.9756,2.9763,2.9735,2.977,2.979,2.9776,2.991,2.9874,2.9891,2.9935,3.0071,3.0077,3.0084,3.0119,3.0132,3.0143,0,0,0,0,0,0,2.9536,2.9581,2.9574,2.9663,2.97,2.974,2.9785,2.9777,2.9822,2.9816,2.9823,2.9833,2.991,2.9931,2.989,3.0024,2.9986,2.9996,3.0007,3.002,3.0029,3.0021,2.9857,0,0,0,0,0,2.9554,2.9607,2.9643,2.9718,2.9737,2.9758,2.9789,2.9791,2.9829,2.9844,2.987,2.9907,2.9957,2.999,3.0038,3.0127,3.0135,3.0166,3.0176,3.0183,3.0191,3.0236,3.025,3.0108,3.0108,3.0108,0,0,2.9591,2.9622,2.9655,2.9726,2.9755,2.9808,2.9771,2.983,2.9869,2.9853,2.9926,2.9946,2.9988,3.007,3.0108,3.009,3.0232,3.0192,3.0198,3.0201,3.0244,3.0258,3.0269,3.0113,3.0112,3.0111,0,0,2.9685,2.9715,2.978,2.9809,2.9853,2.9866,2.9882,2.9923,2.9936,3.001,2.9998,3.0044,3.0131,3.016,3.0186,3.029,3.0277,3.0306,3.0354,3.0399,3.041,3.0419,3.0453,3.0465,3.0314,3.0314,3.0314,0,2.9725,2.9806,2.9814,2.9873,2.9903,2.9891,2.9955,2.9983,3.0041,3.0061,3.004,3.0147,3.0175,3.0262,3.0287,3.031,3.0326,3.0299,3.0408,3.0417,3.0427,3.0459,3.0472,3.0317,3.0317,3.0316,3.0316,0,2.9851,2.9907,2.9954,3.0009,3.0045,3.0106,3.0121,3.0156,3.0156,3.017,3.0244,3.0276,3.0329,3.0351,3.0351,3.0438,3.0424,3.0406,3.0367,3.0443,3.0473,3.0485,3.0321,3.032,3.0319,3.0318,0,0,2.9968,3.0026,3.0042,3.0066,3.0114,3.0156,3.0216,3.0268,3.0297,3.0337,3.0385,3.0458,3.0441,3.047,3.0474,3.0513,3.0588,3.0489,3.049,3.0503,3.0682,3.0693,3.0707,3.0581,3.0584,3.0586,3.0677,0,3.0063,3.0169,3.0177,3.0271,3.0321,3.0311,3.0362,3.0396,3.0411,3.0455,3.0472,3.0522,3.0497,3.0514,3.0553,3.0571,3.0624,3.0565,3.0624,3.0626,3.061,3.0724,3.0737,3.0821,3.0689,3.0691,3.0693,0,3.0189,3.0232,3.0331,3.0369,3.039,3.0437,3.0483,3.0527,3.0564,3.0572,3.0604,3.0602,3.0661,3.0622,3.0702,3.0662,3.0687,3.0699,3.0703,3.0706,3.0662,3.0727,3.0849,3.086,3.0712,3.071,3.0709,0,3.0259,3.0342,3.0412,3.0433,3.048,3.0512,3.0533,3.0568,3.0598,3.0639,3.0658,3.0705,3.073,3.0767,3.0776,3.0747,3.0855,3.0818,3.0861,3.086,3.0881,3.0879,3.1006,3.0903,3.0903,3.0902,3.0902,0,3.0363,3.0423,3.0444,3.0486,3.0553,3.0561,3.0626,3.0645,3.0676,3.072,3.0715,3.0756,3.0768,3.0811,3.0819,3.0882,3.0894,3.09,3.0901,3.0899,3.0898,3.0913,3.0906,3.0906,3.0905,3.0904,3.0904,0,3.0452,3.0469,3.0543,3.0581,3.0592,3.0639,3.0671,3.0711,3.0725,3.0781,3.0795,3.0817,3.0867,3.088,3.0941,3.0946,3.1019,3.1016,3.1007,3.1005,3.1047,3.1041,3.1185,3.1202,3.1091,3.1092,3.1093,0,3.0516,3.0562,3.0605,3.0634,3.0656,3.0704,3.0734,3.0744,3.0776,3.082,3.0854,3.0904,3.0944,3.1024,3.1045,3.109,3.1086,3.1133,3.1093,3.1088,3.1083,3.1078,3.1082,3.114,3.1141,3.1142,3.1143,0,3.0626,3.0631,3.0676,3.0722,3.0758,3.0796,3.0831,3.0855,3.087,3.0905,3.0956,3.0987,3.1048,3.1097,3.1142,3.1162,3.1154,3.1156,3.1167,3.1164,3.1155,3.1157,3.1024,3.1152,3.1151,3.115,3.115,3.1149,3.0702,3.0741,3.0777,3.0825,3.0853,3.0886,3.0924,3.0943,3.0986,3.1037,3.104,3.1095,3.1129,3.1189,3.1212,3.1253,3.1239,3.1257,3.1261,3.1264,3.1266,3.1151,3.1262,3.1262,3.1262,3.1262,3.1261,0,3.0808,3.0831,3.0876,3.0925,3.0963,3.0953,3.0992,3.1023,3.1072,3.1105,3.1144,3.1201,3.1248,3.1272,3.1317,3.1346,3.1343,3.1357,3.1353,3.1358,3.1278,3.1262,3.1358,3.1358,3.1358,3.1358,3.1358,3.1358,3.0868,3.0933,3.0942,3.102,3.1042,3.1096,3.1118,3.1147,3.1173,3.1237,3.1276,3.1292,3.132,3.1368,3.1409,3.1415,3.143,3.1446,3.1449,3.1374,3.1364,3.1354,3.1338,3.145,3.145,3.1524,3.1525,3.1526]},{"header":{"parameterUnit":"m.s-1","parameterCategory":1,"la1":30.2991,"la2":30.254,"lo1":-89.0895,"lo2":-89.0444,"dy":0.0017,"dx":0.0017,"nx":28,"ny":28,"refTime":"2024-02-20T03:00:00:Z","depth":0,"parameterNumber":3,"parameterNumberName":"V-component_of_WINDS"},"data":[0,0,0,0,0,0,0,0,0,0,0,0,0,0,0,0,0,0,0,0,0,0,0,0,0,0,0,0,0,0,0,0,0,0,0,0,0,0,0,0,0,0,0,0,0,0,0,0,0,0,0,0,0,0,0,0,0,0,3.1694,3.1694,0,3.1738,3.1739,3.1739,3.1719,3.1718,3.1717,3.1716,3.176,3.1762,3.1764,0,0,0,0,0,0,0,0,0,0,0,0,0,3.1587,3.1589,3.1694,3.1694,3.1695,3.1738,3.1739,3.1739,3.172,3.1718,3.1717,3.1716,3.1759,3.1761,3.1764,0,0,0,0,0,0,0,0,0,0,0,0,0,3.1633,3.159,3.1694,3.169,3.169,3.1738,3.1739,3.174,3.172,3.1718,3.1717,3.1715,3.1758,3.1761,3.1764,3.1818,0,0,3.1774,3.1776,0,0,0,0,0,0,0,0,3.163,3.1637,3.169,3.1691,3.1691,3.1722,3.1717,3.1766,3.172,3.1709,3.1716,3.1714,3.1748,3.1752,3.1764,3.182,3.1821,3.1775,3.1777,3.1778,3.1779,0,0,0,0,0,0,0,3.1627,3.1635,3.1711,3.1691,3.1691,3.1685,3.169,3.1726,3.1737,3.1709,3.1708,3.1714,3.1748,3.1761,3.1765,3.1822,3.1775,3.1778,3.178,3.1781,3.192,3.1922,0,0,0,0,0,0,3.1624,3.1632,3.171,3.1713,3.1656,3.1688,3.1694,3.1713,3.1737,3.1739,3.1715,3.1713,3.1756,3.1761,3.1766,3.1828,3.1778,3.1781,3.1783,3.1918,3.1921,3.1922,0,0,0,0,0,0,3.1622,3.1632,3.1708,3.1672,3.1681,3.1692,3.1714,3.1715,3.1728,3.1741,3.1742,3.1727,3.1755,3.1762,3.1804,3.1829,3.1783,3.1786,3.1916,3.1919,3.1921,3.1953,0,0,0,0,0,0,3.1619,3.1631,3.1652,3.1673,3.1683,3.1747,3.1716,3.1717,3.1734,3.1731,3.1752,3.1754,3.1754,3.18,3.1808,3.1833,3.1788,3.1914,3.1918,3.1921,3.195,3.1956,3.1962,0,0,0,0,0,3.1616,3.166,3.1654,3.1663,3.1711,3.1748,3.1754,3.1754,3.1736,3.1757,3.1765,3.1753,3.1825,3.1804,3.1813,3.184,3.1913,3.1917,3.192,3.1947,3.1955,3.1962,0,0,0,0,0,0,3.1642,3.1663,3.1656,3.1708,3.1727,3.1745,3.1771,3.1763,3.1787,3.1783,3.1782,3.1786,3.183,3.1839,3.1815,3.1891,3.1866,3.1872,3.1883,3.1891,3.1897,3.1893,3.1791,0,0,0,0,0,3.1654,3.1684,3.17,3.1744,3.1754,3.1761,3.1778,3.1776,3.1795,3.1802,3.1813,3.1831,3.1857,3.1875,3.19,3.1951,3.1954,3.1973,3.198,3.1985,3.1989,3.2014,3.2022,3.1935,3.1935,3.1935,0,0,3.1679,3.1694,3.1713,3.175,3.1764,3.1793,3.1768,3.1801,3.1822,3.1807,3.1847,3.1856,3.1875,3.1922,3.1943,3.1931,3.2014,3.1989,3.1993,3.1995,3.2019,3.2027,3.2035,3.1938,3.1937,3.1937,0,0,3.174,3.1755,3.1792,3.1806,3.1828,3.1832,3.1841,3.186,3.1865,3.1905,3.1894,3.1918,3.1965,3.1978,3.1991,3.2054,3.2043,3.2062,3.2094,3.2118,3.2125,3.2131,3.2151,3.2159,3.2067,3.2067,3.2067,0,3.1768,3.1813,3.1812,3.1845,3.1861,3.1848,3.1885,3.1899,3.1927,3.1937,3.1924,3.1979,3.1992,3.204,3.2055,3.2067,3.2075,3.2059,3.2124,3.213,3.2136,3.2155,3.2163,3.2069,3.2069,3.2069,3.2068,0,3.1845,3.1876,3.1904,3.1931,3.1949,3.1984,3.1987,3.2006,3.2002,3.2007,3.2047,3.2061,3.2088,3.2099,3.2096,3.2146,3.2138,3.2124,3.2099,3.2146,3.2164,3.2171,3.2072,3.2071,3.2071,3.207,0,0,3.1925,3.195,3.196,3.197,3.1992,3.2015,3.2048,3.2074,3.2089,3.2109,3.2135,3.2173,3.216,3.2175,3.2172,3.2194,3.224,3.2177,3.2178,3.2187,3.2293,3.2302,3.2311,3.2233,3.2235,3.2236,3.2291,0,3.1985,3.2044,3.2043,3.2096,3.2123,3.2111,3.2139,3.2154,3.2159,3.2182,3.2187,3.2213,3.2195,3.2203,3.2224,3.223,3.2261,3.2226,3.2256,3.2257,3.225,3.232,3.2331,3.2382,3.2298,3.2299,3.23,0,3.2064,3.2085,3.2141,3.2156,3.2167,3.2193,3.2215,3.2238,3.2254,3.2255,3.2271,3.2265,3.2296,3.227,3.2313,3.2289,3.2301,3.2305,3.2307,3.2309,3.228,3.2322,3.2398,3.2405,3.2311,3.231,3.231,0,3.2114,3.2156,3.2194,3.2204,3.2223,3.2241,3.225,3.2264,3.2279,3.2298,3.2307,3.233,3.2342,3.2359,3.2359,3.234,3.24,3.2375,3.2401,3.2401,3.2414,3.2413,3.2491,3.2424,3.2424,3.2424,3.2424,0,3.218,3.2215,3.2217,3.224,3.2277,3.2275,3.2311,3.2318,3.2331,3.2354,3.2344,3.2366,3.2365,3.2386,3.2386,3.2419,3.2426,3.2426,3.2426,3.2427,3.2426,3.2434,3.2429,3.2426,3.2425,3.2425,3.2425,0,3.2242,3.2245,3.2286,3.23,3.2304,3.233,3.2341,3.2363,3.2366,3.2395,3.2402,3.2407,3.2431,3.2433,3.2461,3.2461,3.2501,3.2497,3.2496,3.2494,3.2519,3.2516,3.2604,3.2614,3.2542,3.2543,3.2543,0,3.2284,3.231,3.2326,3.2341,3.235,3.2375,3.2389,3.2387,3.2403,3.2421,3.244,3.2463,3.2482,3.2522,3.2527,3.2548,3.2544,3.2573,3.2547,3.2546,3.2542,3.254,3.2541,3.2578,3.2579,3.2579,3.258,0,3.2357,3.2357,3.2379,3.24,3.2417,3.2434,3.245,3.2463,3.2462,3.248,3.2504,3.2519,3.2547,3.257,3.259,3.2597,3.2588,3.2588,3.2595,3.2595,3.2592,3.2592,3.2508,3.2586,3.2585,3.2585,3.2584,3.2584,3.2409,3.243,3.2444,3.2468,3.2479,3.2493,3.2513,3.2518,3.2539,3.2562,3.2559,3.2586,3.2599,3.2625,3.2634,3.2654,3.2644,3.2654,3.2656,3.2658,3.266,3.259,3.2658,3.2658,3.2657,3.2657,3.2657,0,3.248,3.2488,3.251,3.2531,3.2549,3.2539,3.2555,3.257,3.2594,3.2607,3.2625,3.2652,3.2673,3.268,3.27,3.2715,3.2711,3.272,3.2718,3.272,3.2669,3.266,3.2723,3.2723,3.2723,3.2723,3.2723,3.2723,3.2519,3.2554,3.2554,3.2593,3.2601,3.2627,3.2636,3.2649,3.2659,3.2689,3.2707,3.2711,3.2721,3.2741,3.276,3.2761,3.2768,3.2779,3.2778,3.273,3.2724,3.2717,3.2709,3.2781,3.2781,3.2827,3.2827,3.2827]}]]